+ View the NASA Portal
+ Center for Near-Earth Object Studies
IMPORTANT:
The SSD Announcement email list is now available. Major changes are coming in the near future, including possible hostname and/or URL changes. To be notified of such changes, subscribe to this email list.
Please visit
this page
for more details.
Don't show this message again
JPL Small-Body Database Browser
Search:
[
help
]
173886 (2001 UZ64)
Classification:
Main-belt Asteroid
SPK-ID:
2173886
[
Ephemeris
|
Orbit Diagram
|
Orbital Elements
|
Mission Design
|
Physical Parameters
|
Discovery Circumstances
|
Close-Approach Data
]
[ show orbit diagram ]
Orbital Elements at Epoch 2458600.5 (2019-Apr-27.0) TDB
Reference:
JPL 16
(heliocentric ecliptic J2000)
Element
Value
Uncertainty (1-sigma)
Units
e
.2222149474621769
5.0947e-08
a
3.070084682454531
1.8594e-08
au
q
2.387865976038464
1.5611e-07
au
i
4.908496238235814
4.8406e-06
deg
node
265.29275412032
7.0837e-05
deg
peri
146.0838592107644
7.1903e-05
deg
M
86.99310862992861
1.1685e-05
deg
t
p
2458125.704812148604
(2018-Jan-07.20481215)
6.2844e-05
TDB
period
1964.82537891166
5.38
1.785e-05
4.887e-08
d
yr
n
.1832223890549542
1.6646e-09
deg/d
Q
3.752303388870599
2.2726e-08
au
Orbit Determination Parameters
# obs. used (total)
684
data-arc span
6431 days (17.61 yr)
first obs. used
2001-08-22
last obs. used
2019-04-01
planetary ephem.
DE431
SB-pert. ephem.
SB431-N16
condition code
0
norm. resid. RMS
.48515
source
ORB
producer
Otto Matic
solution date
2019-Jul-13 10:14:15
Additional Information
Earth MOID
= 1.40035 au
Jupiter MOID
= 1.64189 au
T_jup
= 3.187
[ show covariance matrix ]
[
Ephemeris
|
Orbit Diagram
|
Orbital Elements
|
Mission Design
|
Physical Parameters
|
Discovery Circumstances
|
Close-Approach Data
]
Physical Parameter Table
Parameter
Symbol
Value
Units
Sigma
Reference
Notes
absolute magnitude
H
14.6
n/a
MPO341568
173886 (2001 UZ64)
Discovered 2001-Oct-18 by LINEAR at Socorro
Reference:
20080122/Numbers.arc
Last Updated:
2008-01-28
[ show close-approach data ]
[
Ephemeris
|
Orbit Diagram
|
Orbital Elements
|
Mission Design
|
Physical Parameters
|
Discovery Circumstances
|
Close-Approach Data
]
2019-Dec-10 13:34 UT
(server date/time)
Site Manager:
Ryan S. Park
Webmaster
:
Alan B. Chamberlin